EHI
63 62 70 74 70 67 64 57 43 33 31 28 24 24 20 15 12 12 20 34 44 51 55 46 27 14 9 7 5 4 4 2 1 0 0 0 0 0 0 0 0 0 0
65 64 66 67 64 60 58 53 42 30 28 26 22 20 18 16 17 19 25 34 39 40 42 36 23 14 9 5 4 4 3 2 1 0 0 0 0 0 0 0 0 0 0
62 60 58 57 55 51 47 43 35 25 21 19 15 12 13 16 21 24 27 32 31 27 25 22 17 12 6 3 2 2 1 2 2 1 1 0 0 0 0 1 0 0 0
49 48 48 47 46 43 37 31 24 17 12 9 7 7 12 17 20 20 21 23 22 18 14 12 10 7 4 2 2 1 0 1 2 3 2 1 0 0 0 0 0 0 0
32 34 37 37 36 31 25 18 14 10 7 4 4 5 10 15 16 12 9 10 11 10 9 7 5 3 2 2 1 2 2 2 2 3 2 1 0 0 0 0 0 0 0
19 21 25 26 24 19 13 9 8 6 4 3 1 1 4 7 8 5 2 3 3 5 7 8 7 3 1 1 1 3 4 3 2 1 2 2 1 0 0 0 0 0 0
10 12 15 15 13 11 9 7 5 4 2 1 0 0 0 1 3 2 1 1 1 1 5 9 10 6 3 1 1 3 3 3 2 1 1 2 1 0 0 0 0 0 0
5 6 8 8 7 8 8 6 4 3 2 1 0 0 0 0 1 1 0 0 0 0 2 5 7 7 5 2 1 1 1 2 3 2 1 1 0 0 0 0 0 0 0
2 3 3 3 4 5 5 4 3 2 2 1 0 0 0 0 0 0 0 0 0 0 0 1 2 5 5 3 2 1 1 2 3 2 1 0 0 0 0 0 0 0 0
1 1 1 1 3 3 3 3 2 2 1 0 0 0 0 0 0 0 0 0 0 0 0 0 1 4 5 5 4 2 0 1 1 1 0 0 0 0 0 0 0 0 0
2 1 1 1 1 1 1 2 3 2 1 0 1 1 1 0 0 1 0 0 0 0 0 0 1 4 6 6 5 1 0 0 0 0 0 0 0 0 0 0 0 0 0
3 3 2 2 1 0 0 1 2 2 1 0 1 2 3 2 2 1 1 1 0 0 0 0 1 3 5 5 3 1 0 0 0 0 0 0 0 0 0 0 0 0 0
3 3 2 2 1 0 0 0 1 1 0 0 0 1 3 4 3 3 3 2 1 1 2 2 2 3 4 5 3 0 0 0 0 0 0 0 0 0 0 0 0 0 0
2 2 1 1 1 0 0 0 0 0 0 0 0 0 1 3 4 4 5 4 3 2 2 3 4 5 7 8 4 0 0 0 0 0 0 0 0 0 0 0 0 0 0
0 0 0 1 1 1 0 0 0 0 0 0 0 0 0 1 2 3 4 6 5 3 2 3 6 9 11 9 4 2 1 0 0 0 0 0 0 0 0 0 0 0 0
0 0 0 0 1 1 0 0 0 0 0 0 0 0 0 0 1 1 2 4 5 3 1 3 7 12 14 9 4 3 2 0 0 0 0 0 0 0 0 0 0 0 0
0 0 0 0 0 0 0 0 0 0 0 0 0 0 0 0 0 0 0 2 4 4 2 1 4 10 12 8 4 3 1 0 0 0 0 0 0 0 0 0 0 0 0
0 0 0 0 0 0 0 0 0 0 0 0 0 0 0 0 0 0 0 1 2 3 2 1 2 4 6 5 2 1 0 0 0 0 0 0 0 0 0 0 0 0 0
0 0 0 0 0 0 0 0 0 0 0 0 0 0 0 0 0 0 0 0 1 1 2 2 1 1 2 2 1 0 0 0 0 0 0 0 0 0 0 0 0 0 0
0 0 0 0 0 0 0 0 0 0 0 0 0 0 0 0 0 0 0 0 0 0 1 1 1 0 1 1 0 0 0 0 0 0 0 0 0 0 0 0 0 0 0
0 0 0 0 0 0 0 0 0 0 0 0 0 0 0 0 0 0 0 0 0 0 0 0 0 0 0 0 0 0 0 0 0 0 0 0 0 0 0 0 0 0 0
0 0 0 0 0 0 0 0 0 0 0 0 0 0 0 0 0 0 0 0 0 0 0 0 0 0 0 0 0 0 0 0 0 0 0 0 0 0 0 0 0 0 0
0 0 0 0 0 0 0 0 0 0 0 0 0 0 0 0 0 0 0 0 0 0 0 0 0 0 0 0 0 0 0 0 0 0 0 0 0 0 0 0 0 0 0
0 0 0 0 0 0 0 0 0 0 0 0 0 0 0 0 0 0 0 0 0 0 0 0 0 0 0 0 0 0 0 0 0 0 0 0 0 0 0 0 0 0 0
0 0 0 0 0 0 0 0 0 0 0 0 0 0 0 0 0 0 0 0 0 0 0 0 0 0 0 0 0 0 0 0 0 0 0 0 0 0 0 0 0 0 0
0 0 0 0 0 0 0 0 0 0 0 0 0 0 0 0 0 0 0 0 0 0 0 0 0 0 0 0 0 0 0 0 0 0 0 0 0 0 0 0 0 0 0
Wind_Speed
3 3 2 2 3 4 6 7 6 7 8 8 7 8 10 10 9 6 4 12 16 17 17 17 18 18 18 17 17 18 18 18 17 17 16 16 15 14 14 13 13 12 11
2 2 3 4 4 4 4 4 5 5 5 5 7 7 8 9 8 6 5 9 16 17 16 17 18 19 19 19 18 18 18 18 17 17 17 17 16 15 15 14 14 13 13
2 3 4 4 4 4 5 3 4 4 5 6 7 9 8 8 7 7 6 6 9 14 17 18 18 18 19 20 20 19 18 18 18 17 17 17 17 16 15 15 15 15 14
3 3 4 4 4 4 4 4 3 4 5 5 6 7 7 7 9 7 6 6 6 8 13 19 19 18 19 21 21 20 19 18 18 18 18 18 17 17 16 16 16 15 15
4 3 3 3 3 3 4 5 3 4 5 6 6 6 6 6 7 9 8 9 9 8 8 14 19 18 20 21 21 20 19 19 19 19 19 19 18 18 17 17 16 16 16
3 4 3 3 3 2 3 3 3 3 4 4 7 7 6 6 6 7 9 8 8 10 9 9 10 13 19 19 19 19 19 19 19 19 20 20 20 19 18 17 17 17 17
3 3 4 3 3 3 3 3 3 4 4 3 3 4 4 6 7 6 6 6 7 8 7 8 8 7 9 18 17 17 18 19 19 19 19 19 19 19 18 18 17 17 17
2 4 2 3 2 2 3 3 3 3 3 3 3 2 3 4 5 8 5 5 5 5 6 8 7 7 6 6 11 17 17 17 18 17 17 18 18 18 18 18 18 17 17
2 2 3 3 2 2 2 2 2 3 3 3 3 3 2 2 2 3 6 6 5 4 4 6 8 8 7 5 6 13 15 14 14 16 16 16 16 16 17 18 18 18 18
3 3 2 2 1 2 2 3 2 2 3 3 2 3 2 1 1 1 3 4 5 4 3 4 6 6 6 5 5 9 12 11 11 12 13 14 15 15 16 18 19 19 18
5 5 4 2 1 1 1 2 2 2 3 3 3 2 3 2 3 2 3 3 3 3 3 2 2 4 5 5 5 8 10 9 9 9 9 11 12 14 16 17 19 19 19
4 5 4 3 2 1 1 1 2 2 2 3 3 3 2 2 2 2 2 4 4 4 5 4 3 4 4 4 7 11 10 8 7 8 8 9 11 12 14 16 17 18 19
4 4 3 3 3 3 2 2 2 2 3 3 3 3 3 3 3 3 2 3 3 3 4 4 4 4 5 6 7 11 9 7 6 5 6 8 9 10 12 13 15 17 18
6 6 5 3 4 4 4 3 2 3 2 3 4 3 3 3 3 3 3 2 2 2 3 4 3 4 4 6 8 9 6 7 5 4 3 4 5 7 9 10 11 13 14
7 6 5 5 4 5 5 5 4 4 3 3 3 4 4 2 2 3 3 2 2 2 3 3 3 4 5 7 8 6 6 6 5 4 2 1 1 3 5 7 8 9 10
8 8 8 7 7 6 6 6 5 5 5 5 4 4 4 3 2 2 3 2 2 2 2 3 3 4 5 7 7 6 7 10 7 5 4 3 2 1 2 3 5 6 7
7 7 7 8 8 8 7 7 8 7 7 6 6 6 6 5 3 2 2 2 2 1 2 2 1 4 5 6 5 6 7 6 5 7 6 6 5 4 2 1 2 3 4
8 9 8 9 9 10 8 8 9 9 8 8 7 7 6 5 6 4 3 3 2 1 2 3 2 3 5 6 6 6 5 6 6 8 8 8 8 7 6 4 3 3 3
8 9 9 9 9 10 9 9 9 9 9 8 8 8 7 7 6 5 5 4 3 3 2 3 3 2 3 5 6 5 5 5 7 8 9 9 9 10 9 9 7 6 6
9 9 9 9 9 10 10 10 10 10 9 9 8 8 7 7 7 6 6 5 4 4 3 4 4 3 3 5 5 6 5 4 4 6 6 7 9 11 11 11 10 9 8
12 9 9 9 9 9 10 10 9 12 10 9 9 8 9 9 10 8 6 6 6 5 4 4 5 4 4 5 6 5 6 5 4 5 5 4 4 5 6 8 10 10 10
9 9 10 10 10 11 10 8 6 8 8 8 9 9 9 9 11 12 11 8 8 7 6 5 5 5 6 5 5 6 6 7 4 4 5 4 4 5 5 5 8 11 11
10 10 11 10 11 11 12 11 9 6 8 8 8 7 10 11 12 10 11 12 10 10 9 6 6 6 5 6 6 7 7 7 5 6 6 5 4 6 5 6 10 11 11
10 10 11 11 10 11 13 12 11 9 8 9 8 8 9 8 7 8 10 10 9 9 10 8 5 5 5 5 6 6 6 5 6 5 5 5 4 5 6 5 8 10 11
10 10 10 10 10 10 11 12 11 7 7 9 9 9 9 9 10 9 8 7 7 7 10 12 10 8 8 7 6 6 7 8 6 4 3 5 5 5 5 4 5 9 10
10 10 10 9 9 9 10 12 11 7 7 7 7 7 10 10 11 12 7 7 7 6 6 7 8 8 8 8 10 9 9 9 7 5 4 5 7 6 5 3 4 4 5
Wind_Direction
249 276 294 270 250 234 217 218 219 215 215 223 229 223 217 219 229 230 182 187 194 194 193 196 201 207 210 211 210 208 208 208 206 204 203 204 206 204 201 199 199 198 196
271 283 283 279 275 269 260 234 233 235 221 219 230 237 230 226 226 224 200 189 201 200 202 205 207 211 214 214 213 212 210 211 209 206 205 206 207 207 206 204 202 201 200
282 272 274 274 271 271 268 261 257 262 252 235 232 235 234 230 226 219 210 190 200 205 208 211 212 212 215 216 216 215 213 212 210 207 207 207 206 207 207 207 207 204 202
287 277 270 270 272 268 256 249 243 247 251 245 239 236 232 222 222 215 211 206 204 210 212 215 215 214 216 218 218 217 215 213 211 209 209 208 206 207 208 209 209 207 205
304 293 276 271 277 268 253 254 238 239 247 247 243 236 235 224 211 215 210 209 209 208 203 209 212 214 217 219 219 219 216 215 213 211 212 210 208 208 208 210 211 210 208
314 301 282 282 282 279 261 251 252 256 255 254 258 250 235 222 210 211 210 209 209 208 207 204 199 213 218 219 218 218 218 216 214 213 214 213 212 212 211 211 211 212 210
332 311 305 300 280 278 271 258 245 253 249 248 252 260 253 239 220 213 207 208 205 203 204 192 185 195 209 217 216 215 216 216 214 213 214 215 215 214 213 212 213 214 213
317 312 317 300 299 283 274 271 255 255 253 234 221 237 245 234 222 211 194 199 215 200 195 190 186 191 188 185 209 214 215 216 216 215 214 213 215 216 214 214 215 215 214
282 289 303 309 312 298 284 281 251 244 253 264 232 224 237 227 190 210 200 195 194 193 191 181 183 177 183 181 191 204 208 211 215 218 214 214 215 215 214 214 216 216 215
251 240 248 274 310 313 306 291 277 258 255 267 276 259 261 300 258 192 220 190 178 183 195 187 179 166 176 171 164 169 185 193 204 216 219 216 214 214 214 216 217 217 215
257 235 219 204 226 276 312 310 323 302 272 265 268 284 285 269 254 230 218 191 179 175 190 199 170 158 160 148 141 146 161 174 190 208 219 221 217 216 217 219 222 222 219
257 245 215 183 198 213 247 280 279 271 279 283 283 280 281 273 268 262 239 204 191 192 186 180 175 157 153 147 145 140 146 159 180 200 213 221 223 222 220 221 223 224 223
288 277 254 183 200 202 210 224 243 254 249 254 261 273 281 278 282 274 263 251 213 183 167 170 168 149 153 121 129 140 144 154 171 192 210 220 225 223 222 221 223 224 224
291 287 285 244 220 214 222 209 225 228 230 243 248 254 268 275 291 285 274 270 255 218 174 170 155 151 134 124 138 145 137 145 152 173 196 215 224 223 221 221 222 222 222
285 292 299 285 254 229 221 214 225 232 222 226 239 238 241 251 274 296 287 270 239 227 217 191 164 151 130 119 147 137 128 134 132 132 135 168 209 218 218 218 219 220 220
283 275 269 270 265 250 228 217 221 224 220 219 221 233 238 233 235 267 287 276 256 229 231 207 191 149 139 136 148 126 123 125 108 102 87 72 67 95 188 203 208 213 217
287 284 277 272 264 256 244 230 226 221 218 218 218 216 221 220 222 227 250 270 277 253 238 245 166 133 124 124 134 129 139 128 106 92 86 75 69 69 81 122 176 193 198
290 287 280 274 269 262 248 238 233 231 220 218 218 216 214 215 213 219 218 231 241 235 217 229 200 162 143 140 146 145 139 124 112 102 93 83 76 72 70 78 96 116 136
285 281 279 277 272 268 263 252 239 233 225 220 218 217 213 209 212 210 208 214 217 223 204 204 216 195 161 151 146 139 124 123 123 121 102 86 79 76 72 73 78 84 90
287 281 275 272 270 267 263 259 251 240 231 225 218 218 216 210 208 206 211 208 206 208 214 211 205 193 179 162 156 149 142 138 132 123 98 97 92 80 73 71 75 79 84
289 287 284 279 272 266 258 251 250 249 237 228 222 218 219 215 210 201 208 201 197 199 207 214 209 196 186 174 177 168 157 143 123 129 124 117 108 87 72 66 70 77 84
287 283 278 275 272 269 270 263 254 263 257 239 227 220 222 220 210 201 205 202 196 200 203 209 214 206 196 188 184 170 158 155 152 158 133 114 104 90 74 64 72 81 86
290 282 276 271 266 262 260 253 241 247 257 248 234 220 225 222 201 195 202 205 208 215 210 206 211 213 202 192 184 179 174 174 154 153 131 111 98 88 78 73 80 85 89
288 281 276 270 265 261 252 243 234 236 243 242 236 223 218 232 223 200 199 202 205 210 208 212 220 217 215 197 188 184 173 144 120 138 133 122 121 106 95 84 81 89 93
288 282 276 269 263 259 246 237 227 232 235 238 233 226 215 214 218 201 199 202 206 213 213 212 209 208 197 185 176 162 162 154 145 151 145 125 134 121 106 98 93 93 96
287 286 279 269 262 256 240 227 218 227 230 234 230 228 220 213 206 196 199 202 209 214 219 209 204 206 199 190 186 184 177 167 151 153 168 139 150 144 125 122 129 129 108